Location: Bosdarros
(43.2167°N, 0.3667°W)
Time: 08:23:37
(UTC+00:00)

SPOT 1/Viking Rocket - Pass Details

Date: 22 April 2021
Orbit: 777 x 794 km, 98.4° (Epoch: 07 May)

Event Time Altitude Azimuth Distance (km) Brightness Sun altitude
Exits shadow 21:14:16 47° 175° (S) 1,050 3.8 -22.7°
Maximum altitude 21:15:51 82° 256° (WSW) 808 3.5 -22.9°
Drops below altitude 10° 21:21:06 10° 345° (NNW) 2,370 6.9 -23.5°
Sets 21:23:27 0° 346° (NNW) 3,302 7.8 -23.8°
